Location: ?????????
(54.7630°N, 39.4991°E)
Time: 05:13:41
(UTC+00:00)

In-Cosmos 22 Rocket - Pass Details

Date: 14 April 2026
Orbit: 788 x 886 km, 81.2° (Epoch: 10 May)

Event Time Altitude Azimuth Distance (km) Brightness Sun altitude
Rises 17:36:43 0° 344° (NNW) 3,330 8.1 -10.3°
Reaches altitude 10° 17:39:08 10° 342° (NNW) 2,385 7.4 -10.6°
Maximum altitude 17:44:26 67° 261° (W) 858 4.4 -11.2°
Drops below altitude 10° 17:49:41 10° 180° (S) 2,348 6.2 -11.8°
Enters shadow 17:51:35 - 178° (S) 3,093 6.8 -12.0°
